| time (UTC) | temp F | wind direction | speed MPH | gust MPH | rain 1hr in | rain 24hr in | rain mn in | humidity % | barometer mb |
| 20260505170036 | 57 | 332 | 2.0 | 7.0 | 0.00 | 0.00 | 0.00 | 71 | 1012.0 |
| 20260505164529 | 57 | 298 | 2.0 | 7.0 | 0.00 | 0.00 | 0.00 | 69 | 1012.0 |
| 20260505163034 | 57 | 120 | 1.0 | 5.0 | 0.00 | 0.00 | 0.00 | 68 | 1011.9 |
| 20260505161530 | 57 | 1 | 1.0 | 5.0 | 0.00 | 0.00 | 0.00 | 69 | 1012.0 |
| 20260505153035 | 57 | 1 | 0.0 | 5.0 | 0.00 | 0.00 | 0.00 | 70 | 1012.1 |
| 20260505151545 | 57 | 296 | 1.0 | 4.0 | 0.00 | 0.00 | 0.00 | 70 | 1012.1 |
| 20260505124532 | 56 | 0 | 1.0 | 5.0 | 0.00 | 0.00 | 0.00 | 72 | 1012.8 |
| 20260505123033 | 56 | 308 | 2.0 | 7.0 | 0.00 | 0.00 | 0.00 | 70 | 1012.7 |
| 20260505121531 | 55 | 321 | 1.0 | 8.0 | 0.00 | 0.00 | 0.00 | 73 | 1012.7 |
| 20260505120038 | 55 | 29 | 3.0 | 8.0 | 0.00 | 0.00 | 0.00 | 74 | 1012.9 |
| 20260505114530 | 54 | 316 | 2.0 | 8.0 | 0.00 | 0.00 | 0.00 | 77 | 1012.9 |
| 20260505113030 | 55 | 25 | 2.0 | 7.0 | 0.00 | 0.00 | 0.00 | 76 | 1012.9 |
| 20260505111532 | 54 | 32 | 3.0 | 8.0 | 0.00 | 0.00 | 0.00 | 77 | 1013.0 |
| 20260505101532 | 53 | 28 | 3.0 | 10.0 | 0.00 | 0.00 | 0.00 | 78 | 1013.2 |
| 20260505100034 | 53 | 72 | 3.0 | 9.0 | 0.00 | 0.00 | 0.00 | 79 | 1013.4 |
| 20260505094530 | 53 | 337 | 1.0 | 6.0 | 0.00 | 0.00 | 0.00 | 83 | 1013.4 |
| 20260505093040 | 52 | 58 | 2.0 | 9.0 | 0.00 | 0.00 | 0.00 | 83 | 1013.4 |
| 20260505091532 | 52 | 25 | 3.0 | 10.0 | 0.00 | 0.00 | 0.00 | 82 | 1013.6 |
| 20260505090038 | 52 | 72 | 4.0 | 10.0 | 0.00 | 0.00 | 0.00 | 82 | 1013.5 |
| 20260505084532 | 52 | 309 | 4.0 | 8.0 | 0.00 | 0.00 | 0.00 | 83 | 1013.4 |
| 20260505083033 | 53 | 29 | 4.0 | 9.0 | 0.00 | 0.00 | 0.00 | 82 | 1013.6 |
| 20260505081532 | 52 | 7 | 2.0 | 10.0 | 0.00 | 0.00 | 0.00 | 83 | 1013.6 |
| 20260505080030 | 53 | 13 | 3.0 | 12.0 | 0.00 | 0.00 | 0.00 | 82 | 1013.5 |
| 20260505074531 | 53 | 292 | 3.0 | 11.0 | 0.00 | 0.00 | 0.00 | 84 | 1013.5 |
| 20260505073037 | 52 | 330 | 2.0 | 8.0 | 0.00 | 0.00 | 0.00 | 86 | 1013.3 |
| 20260505071529 | 52 | 316 | 1.0 | 5.0 | 0.00 | 0.00 | 0.00 | 88 | 1013.5 |
| 20260505070032 | 51 | 299 | 1.0 | 5.0 | 0.00 | 0.00 | 0.00 | 89 | 1013.6 |
| 20260505064531 | 51 | 321 | 1.0 | 5.0 | 0.00 | 0.00 | 0.00 | 89 | 1013.6 |
| 20260505063038 | 50 | 34 | 1.0 | 6.0 | 0.00 | 0.00 | 0.00 | 90 | 1013.6 |
| 20260505061531 | 50 | 0 | 1.0 | 6.0 | 0.00 | 0.00 | 0.00 | 92 | 1013.5 |
| 20260505060034 | 50 | 0 | 0.0 | 3.0 | 0.00 | 0.00 | 0.00 | 93 | 1013.8 |
| 20260505054537 | 49 | 44 | 0.0 | 3.0 | 0.00 | 0.00 | 0.00 | 92 | 1013.5 |
| 20260505053041 | 48 | 18 | 1.0 | 4.0 | 0.00 | 0.00 | 0.00 | 93 | 1013.6 |
| 20260505051535 | 48 | 0 | 1.0 | 5.0 | 0.00 | 0.00 | 0.00 | 92 | 1013.6 |
| 20260505041532 | 49 | 323 | 0.0 | 3.0 | 0.00 | 0.00 | 0.00 | 91 | 1013.8 |
| 20260505040030 | 49 | 0 | 0.0 | 2.0 | 0.00 | 0.00 | 0.00 | 91 | 1013.7 |
| 20260505034532 | 49 | 0 | 0.0 | 2.0 | 0.00 | 0.00 | 0.00 | 91 | 1013.7 |
| 20260505033045 | 49 | 0 | 0.0 | 2.0 | 0.00 | 0.00 | 0.00 | 90 | 1013.8 |
| 20260505031533 | 50 | 0 | 0.0 | 2.0 | 0.00 | 0.00 | 0.00 | 90 | 1013.9 |
| 20260505030030 | 50 | 29 | 1.0 | 4.0 | 0.00 | 0.00 | 0.00 | 90 | 1013.9 |
| 20260505024530 | 50 | 0 | 0.0 | 3.0 | 0.00 | 0.00 | 0.00 | 90 | 1013.9 |
| 20260505023029 | 50 | 0 | 0.0 | 3.0 | 0.00 | 0.00 | 0.00 | 90 | 1013.9 |
| 20260505021529 | 50 | 0 | 0.0 | 2.0 | 0.00 | 0.00 | 0.00 | 90 | 1013.8 |
| 20260505020030 | 51 | 19 | 0.0 | 3.0 | 0.00 | 0.00 | 0.00 | 89 | 1013.9 |
| 20260505014533 | 51 | 0 | 0.0 | 2.0 | 0.00 | 0.00 | 0.00 | 89 | 1014.1 |
| 20260505013031 | 51 | 30 | 0.0 | 2.0 | 0.00 | 0.00 | 0.00 | 89 | 1014.1 |
| 20260505011532 | 51 | 0 | 0.0 | 0.0 | 0.00 | 0.00 | 0.00 | 88 | 1014.3 |
| 20260505010031 | 51 | 0 | 0.0 | 2.0 | 0.00 | 0.00 | 0.00 | 88 | 1014.3 |
| 20260505004542 | 51 | 0 | 0.0 | 1.0 | 0.00 | 0.00 | 0.00 | 88 | 1014.4 |
| 20260505003030 | 52 | 0 | 0.0 | 4.0 | 0.00 | 0.00 | 0.00 | 87 | 1014.5 |
| 20260505001532 | 52 | 0 | 1.0 | 5.0 | 0.00 | 0.00 | 0.00 | 87 | 1014.5 |
| 20260505000031 | 52 | 14 | 2.0 | 5.0 | 0.00 | 0.00 | 0.00 | 87 | 1014.7 |
| 20260504234536 | 53 | 68 | 1.0 | 5.0 | 0.00 | 0.00 | 0.00 | 86 | 1014.7 |
| 20260504233031 | 53 | 46 | 1.0 | 6.0 | 0.00 | 0.00 | 0.00 | 86 | 1014.7 |
| 20260504231542 | 53 | 42 | 0.0 | 4.0 | 0.00 | 0.00 | 0.00 | 86 | 1014.7 |
| 20260504230030 | 53 | 62 | 0.0 | 5.0 | 0.00 | 0.00 | 0.00 | 86 | 1014.6 |
| 20260504224532 | 53 | 0 | 0.0 | 3.0 | 0.00 | 0.00 | 0.00 | 86 | 1014.8 |
| 20260504223030 | 53 | 15 | 1.0 | 3.0 | 0.00 | 0.00 | 0.00 | 87 | 1014.9 |
| 20260504221530 | 54 | 6 | 0.0 | 3.0 | 0.00 | 0.00 | 0.00 | 87 | 1014.9 |
| 20260504220031 | 54 | 0 | 0.0 | 2.0 | 0.00 | 0.00 | 0.00 | 87 | 1015.1 |
| 20260504214537 | 54 | 346 | 0.0 | 3.0 | 0.00 | 0.00 | 0.00 | 87 | 1015.0 |
| 20260504213032 | 54 | 0 | 0.0 | 2.0 | 0.00 | 0.00 | 0.00 | 86 | 1015.1 |
| 20260504211530 | 54 | 0 | 1.0 | 3.0 | 0.00 | 0.00 | 0.00 | 86 | 1015.0 |
| 20260504210030 | 54 | 25 | 0.0 | 3.0 | 0.00 | 0.00 | 0.00 | 86 | 1015.0 |
| 20260504204604 | 54 | 0 | 0.0 | 1.0 | 0.00 | 0.00 | 0.00 | 86 | 1015.0 |
| 20260504203032 | 54 | 0 | 0.0 | 3.0 | 0.00 | 0.00 | 0.00 | 85 | 1015.0 |
| 20260504201530 | 54 | 77 | 0.0 | 4.0 | 0.00 | 0.00 | 0.00 | 85 | 1014.9 |
| 20260504200035 | 55 | 0 | 0.0 | 3.0 | 0.00 | 0.00 | 0.00 | 85 | 1014.8 |
| 20260504194534 | 55 | 0 | 0.0 | 5.0 | 0.00 | 0.00 | 0.00 | 84 | 1014.8 |
| 20260504193033 | 55 | 0 | 0.0 | 2.0 | 0.00 | 0.00 | 0.00 | 84 | 1014.7 |
| 20260504191531 | 55 | 26 | 0.0 | 4.0 | 0.00 | 0.00 | 0.00 | 84 | 1014.6 |
| 20260504190035 | 56 | 23 | 0.0 | 3.0 | 0.00 | 0.00 | 0.00 | 83 | 1014.5 |
| 20260504184532 | 56 | 0 | 1.0 | 5.0 | 0.00 | 0.00 | 0.00 | 83 | 1014.5 |
| 20260504183030 | 56 | 0 | 1.0 | 4.0 | 0.00 | 0.00 | 0.00 | 83 | 1014.4 |
| 20260504181530 | 56 | 0 | 1.0 | 8.0 | 0.00 | 0.00 | 0.00 | 82 | 1014.2 |
| 20260504180030 | 57 | 36 | 0.0 | 4.0 | 0.00 | 0.00 | 0.00 | 82 | 1014.2 |
| 20260504174530 | 57 | 93 | 1.0 | 5.0 | 0.00 | 0.00 | 0.00 | 81 | 1014.2 |
| 20260504173029 | 57 | 349 | 0.0 | 8.0 | 0.00 | 0.00 | 0.00 | 80 | 1014.2 |
| 20260504171541 | 57 | 28 | 3.0 | 9.0 | 0.00 | 0.00 | 0.00 | 79 | 1014.1 |